"2010-08-30 00:00:00",115501,11.46,198.1,0.889,0.449,23.8,110.7437,26.81,27.68,15.89,0,111.3,13.09,27.65,160.1
"2010-08-30 00:00:30",115502,11.38,200.9,0.864,0.161,23.73,110.7444,26.81,27.68,16.13,0,111.3,13.09,27.65,162.9
"2010-08-30 00:01:00",115503,10.92,197.4,2.886,0.396,23.77,110.7424,26.8,27.68,16.24,0,111.3,13.09,27.65,159.4
"2010-08-30 00:01:30",115504,10.54,196.4,1.563,0.245,23.78,110.7295,26.77,27.66,16.06,0,111.3,13.1,27.61,158.4
"2010-08-30 00:02:00",115505,10.53,196.1,1.811,0.16,23.75,110.7225,26.75,27.64,15.85,0,111.3,13.1,27.60,158.1
"2010-08-30 00:02:30",115506,10.06,193,1.33,0.365,23.75,110.7188,26.74,27.64,16.06,0,111.2,13.1,27.59,155.0
"2010-08-30 00:03:00",115507,9.74,193.6,1.509,0.171,23.72,110.7157,26.73,27.64,16.38,0,111.2,13.1,27.58,155.6
"2010-08-30 00:03:30",115508,10.83,195.8,1.176,0.28,23.72,110.711,26.72,27.62,16.5,0,111.3,13.11,27.57,157.8
"2010-08-30 00:04:00",115509,10.66,196.7,1.032,0.105,23.7,110.7107,26.72,27.63,16.05,0,111.2,13.11,27.57,158.7
"2010-08-30 00:04:30",115510,10.64,195.8,1.125,0.316,23.7,110.7107,26.72,27.62,16.36,0,111.2,13.11,27.57,157.8
"2010-08-30 00:05:00",115511,10.71,196.7,1.885,0.297,23.74,110.7104,26.72,27.6,16.42,0,111.2,13.11,27.57,158.7
"2010-08-30 00:05:30",115512,10.25,198.2,1.39,0.214,23.74,110.707,26.71,27.61,16.21,0,111.2,13.11,27.56,160.2
"2010-08-30 00:06:00",115513,10.21,198.6,2.209,0.271,23.76,110.7028,26.7,27.6,16.23,0,111.2,13.11,27.55,160.6
"2010-08-30 00:06:30",115514,10.1,200.1,1.777,0.361,23.73,110.7014,26.7,27.58,15.99,0,111.2,13.11,27.54,162.1
"2010-08-30 00:07:00",115515,10.32,196,2.38,0.623,23.8,110.6994,26.69,27.59,16.02,0,111.2,13.11,27.54,158.0
"2010-08-30 00:07:30",115516,11.04,196.9,1.814,0.325,23.78,110.7,26.69,27.6,16.26,0,111.2,13.11,27.54,158.9
"2010-08-30 00:08:00",115517,10.48,198.5,1.853,0.323,23.72,110.6986,26.69,27.58,16.39,0,111.2,13.11,27.54,160.5
"2010-08-30 00:08:30",115518,9.83,201,1.593,0.395,23.74,110.6896,26.67,27.59,16.17,0,111.2,13.1,27.51,163.0
"2010-08-30 00:09:00",115519,10.53,200.2,1.971,0.372,23.78,110.6961,26.68,27.59,15.84,0,111.2,13.1,27.53,162.2
"2010-08-30 00:09:30",115520,10.68,199.5,1.701,0.34,23.71,110.7025,26.7,27.58,16.18,0,111.2,13.1,27.55,161.5
"2010-08-30 00:10:00",115521,11.26,200.3,1.623,0.33,23.69,110.6975,26.69,27.59,16.51,0,111.2,13.11,27.53,162.3
"2010-08-30 00:10:30",115522,10.34,207.9,2.449,0.503,23.71,110.6916,26.67,27.6,16.43,0,111.2,13.11,27.52,169.9
"2010-08-30 00:11:00",115523,10.43,200.2,1.922,0.361,23.77,110.6948,26.68,27.61,16.09,0,111.2,13.11,27.53,162.2
"2010-08-30 00:11:30",115524,10.65,201.9,0.998,0.249,23.77,110.7004,26.69,27.6,15.71,0,111.2,13.11,27.54,163.9
"2010-08-30 00:12:00",115525,10.74,202.8,3.065,0.308,23.8,110.7075,26.71,27.59,15.99,0,111.2,13.11,27.56,164.8
"2010-08-30 00:12:30",115526,10.98,209.5,1.448,0.212,23.77,110.7122,26.73,27.6,16.29,0,111.2,13.11,27.57,171.5
"2010-08-30 00:13:00",115527,10.44,203.9,2.41,0.4,23.8,110.7147,26.73,27.6,16.04,0,111.2,13.11,27.58,165.9
"2010-08-30 00:13:30",115528,10.62,201,1.253,0.292,23.78,110.7144,26.73,27.62,15.8,0,111.2,13.11,27.58,163.0
"2010-08-30 00:14:00",115529,10.95,199.9,1.368,0.188,23.85,110.7178,26.74,27.62,15.72,0,111.2,13.11,27.58,161.9
"2010-08-30 00:14:30",115530,10.76,201.5,2.42,0.505,23.8,110.7203,26.75,27.65,15.74,0,111.2,13.11,27.59,163.5
"2010-08-30 00:15:00",115531,10.66,200.1,1.664,0.166,23.79,110.7237,26.75,27.64,15.78,0,111.2,13.1,27.60,162.1
"2010-08-30 00:15:30",115532,10.78,202.1,0.675,0.165,23.78,110.7271,26.76,27.65,15.61,0,111.2,13.11,27.61,164.1
"2010-08-30 00:16:00",115533,11.07,199.1,1.479,0.416,23.85,110.7295,26.77,27.65,15.57,0,111.2,13.11,27.61,161.1
"2010-08-30 00:16:30",115534,11.09,203.2,1.887,0.349,23.83,110.7348,26.78,27.66,15.55,0,111.2,13.11,27.63,165.2
"2010-08-30 00:17:00",115535,11.13,209.1,5.971,0.249,23.78,110.74,26.8,27.66,15.62,0,111.2,13.11,27.64,171.1
"2010-08-30 00:17:30",115536,10.33,207.2,5.81,0.389,23.77,110.7433,26.81,27.66,15.7,0,111.2,13.11,27.65,169.2
"2010-08-30 00:18:00",115537,10.18,204.2,2.284,0.177,23.77,110.7458,26.81,27.67,15.57,0,111.2,13.11,27.66,166.2
"2010-08-30 00:18:30",115538,9.44,209.9,2.459,0.362,23.71,110.7446,26.81,27.68,15.58,0,111.2,13.11,27.65,171.9
"2010-08-30 00:19:00",115539,9.36,209.2,1.878,0.286,23.71,110.7461,26.81,27.68,15.92,0,111.2,13.11,27.66,171.2
"2010-08-30 00:19:30",115540,9.92,211.6,3.491,0.323,23.69,110.7471,26.81,27.68,16,0,111.2,13.11,27.66,173.6
"2010-08-30 00:20:00",115541,10.23,213.9,3.578,0.329,23.64,110.7451,26.81,27.68,16.17,0,111.2,13.11,27.65,175.9
"2010-08-30 00:20:30",115542,10.02,217.6,1.876,0.55,23.65,110.7389,26.79,27.68,16.14,0,111.2,13.11,27.64,179.6
"2010-08-30 00:21:00",115543,10.59,211.8,5.748,0.534,23.74,110.7386,26.79,27.66,16.03,0,111.2,13.11,27.64,173.8
"2010-08-30 00:21:30",115544,10.07,205.7,2.192,0.386,23.76,110.7386,26.79,27.66,16.02,0,111.2,13.11,27.64,167.7
"2010-08-30 00:22:00",115545,9.87,211.2,1.697,0.396,23.71,110.739,26.79,27.68,16.08,0,111.2,13.11,27.64,173.2
"2010-08-30 00:22:30",115546,10.85,212,1.943,0.416,23.72,110.7399,26.8,27.69,16.1,0,111.2,13.11,27.64,174.0
"2010-08-30 00:23:00",115547,11.18,213,2.951,0.426,23.8,110.7414,26.8,27.67,15.79,0,111.2,13.11,27.65,175.0
"2010-08-30 00:23:30",115548,10,209.2,3.079,0.308,23.76,110.7414,26.8,27.66,15.93,0,111.2,13.12,27.65,171.2
"2010-08-30 00:24:00",115549,10.41,207.1,1.797,0.339,23.77,110.7414,26.8,27.67,15.97,0,111.2,13.12,27.65,169.1
"2010-08-30 00:24:30",115550,9.9,209.7,2.719,0.392,23.75,110.7427,26.8,27.68,15.89,0,111.2,13.11,27.65,171.7
"2010-08-30 00:25:00",115551,10.72,212.6,2.843,0.356,23.73,110.7449,26.81,27.68,15.88,0,111.2,13.12,27.65,174.6
"2010-08-30 00:25:30",115552,10.44,213.7,3.647,0.322,23.73,110.743,26.8,27.69,15.89,0,111.2,13.12,27.65,175.7
"2010-08-30 00:26:00",115553,10.07,216.1,2.677,0.336,23.68,110.7436,26.81,27.68,16.07,0,111.2,13.12,27.65,178.1
"2010-08-30 00:26:30",115554,9.7,218.4,2.309,0.214,23.7,110.7452,26.81,27.68,16.18,0,111.2,13.12,27.66,180.4
"2010-08-30 00:27:00",115555,10.12,212.6,1.454,0.246,23.71,110.7452,26.81,27.7,16.2,0,111.2,13.12,27.66,174.6
"2010-08-30 00:27:30",115556,10.14,211.4,1.782,0.464,23.7,110.7461,26.81,27.68,16.32,0,111.2,13.12,27.66,173.4
"2010-08-30 00:28:00",115557,9.46,212,1.431,0.212,23.7,110.7464,26.81,27.68,16.2,0,111.2,13.12,27.66,174.0
"2010-08-30 00:28:30",115558,9.16,209.1,2.666,0.587,23.65,110.7474,26.82,27.68,16.42,0,111.2,13.12,27.66,171.1
"2010-08-30 00:29:00",115559,8.35,209.3,1.509,0.404,23.63,110.7477,26.82,27.68,16.5,0,111.2,13.12,27.66,171.3
"2010-08-30 00:29:30",115560,9.22,207.3,1.618,0.288,23.68,110.7345,26.78,27.67,16.54,0,111.2,13.12,27.63,169.3
"2010-08-30 00:30:00",115561,8.63,208.3,1.348,0.309,23.66,110.7264,26.76,27.66,16.55,0,111.2,13.12,27.61,170.3
"2010-08-30 00:30:30",115562,9.08,201.9,2.341,0.375,23.66,110.7207,26.75,27.65,16.67,0,111.2,13.12,27.59,163.9
"2010-08-30 00:31:00",115563,8.75,207,3.143,0.334,23.56,110.7146,26.73,27.64,16.8,0,111.2,13.11,27.58,169.0
"2010-08-30 00:31:30",115564,9.34,207.5,3.187,0.253,23.55,110.7143,26.73,27.62,16.91,0,111.2,13.11,27.58,169.5
"2010-08-30 00:32:00",115565,10.09,207.2,1.898,0.57,23.6,110.7123,26.73,27.63,17.03,0,111.2,13.11,27.57,169.2
"2010-08-30 00:32:30",115566,10.34,207.1,1.219,0.192,23.57,110.6988,26.69,27.6,17.18,0,111.2,13.11,27.54,169.1
"2010-08-30 00:33:00",115567,9.56,212.5,2.807,0.454,23.55,110.6885,26.66,27.59,17.22,0,111.2,13.11,27.51,174.5
"2010-08-30 00:33:30",115568,8.93,211.1,2.416,0.313,23.53,110.6809,26.64,27.58,17.23,0,111.2,13.11,27.49,173.1
"2010-08-30 00:34:00",115569,8.98,207.7,5.361,0.529,23.36,110.6772,26.64,27.56,17.14,0,111.2,13.11,27.48,169.7
"2010-08-30 00:34:30",115570,8.12,227.5,6.275,0.715,23.42,110.6497,26.56,27.53,17.07,0,111.2,13.11,27.41,189.5
"2010-08-30 00:35:00",115571,9.35,229.6,9.49,1.061,23.46,110.646,26.55,27.5,16.93,0,111.2,13.11,27.40,191.6
"2010-08-30 00:35:30",115572,12.88,236.4,3.693,0.961,23,110.6295,26.51,27.45,16.61,0,111.2,13.11,27.36,198.4
"2010-08-30 00:36:00",115573,12.42,229.8,3.207,1.055,23.05,110.6017,26.44,27.4,16.57,0,111.2,13.11,27.29,191.8
"2010-08-30 00:36:30",115574,11.8,224.3,4.126,0.617,22.95,110.5775,26.38,27.38,16.57,0,111.2,13.11,27.22,186.3
"2010-08-30 00:37:00",115575,13.31,235.3,2.725,1.203,22.86,110.5498,26.31,27.32,15.99,0,111.2,13.12,27.15,197.3
"2010-08-30 00:37:30",115576,14.13,236,1.529,0.576,22.87,110.5239,26.24,27.26,15.2,0,111.2,13.12,27.08,198.0
"2010-08-30 00:38:00",115577,14.13,235.7,2.889,0.459,22.99,110.5057,26.19,27.22,15.19,0,111.2,13.12,27.04,197.7
"2010-08-30 00:38:30",115578,14.41,236.6,2.962,0.509,22.82,110.4824,26.13,27.18,15.43,0,111.2,13.12,26.98,198.6
"2010-08-30 00:39:00",115579,14.35,236.5,2.17,0.454,22.97,110.4742,26.11,27.14,15.27,0,111.2,13.12,26.96,198.5
"2010-08-30 00:39:30",115580,13.95,236.3,2.031,0.249,22.97,110.4501,26.05,27.08,15.1,0,111.2,13.12,26.89,198.3
"2010-08-30 00:40:00",115581,14.77,238.5,1.514,0.371,22.8,110.4447,26.04,27.04,15.6,0,111.2,13.12,26.88,200.5
"2010-08-30 00:40:30",115582,14.71,238.6,1.715,0.272,22.74,110.4321,26,27.02,15.66,0,111.2,13.12,26.85,200.6
"2010-08-30 00:41:00",115583,15.39,238.6,1.388,0.34,22.8,110.411,25.95,26.97,15.23,0,111.2,13.12,26.79,200.6
"2010-08-30 00:41:30",115584,15.14,237.6,1.924,0.769,22.87,110.392,25.9,26.93,14.98,0,111.2,13.13,26.74,199.6
"2010-08-30 00:42:00",115585,15.42,236,4.3,0.697,23.07,110.3776,25.86,26.9,14.66,0,111.2,13.12,26.71,198.0
"2010-08-30 00:42:30",115586,12.83,232,4.348,0.605,22.62,110.3768,25.86,26.86,15.59,0,111.2,13.13,26.70,194.0
"2010-08-30 00:43:00",115587,14.4,233.7,1.532,0.417,23.16,110.3712,25.85,26.83,14.72,0,111.2,13.13,26.69,195.7
"2010-08-30 00:43:30",115588,13.03,232.1,2.084,0.376,22.83,110.3684,25.84,26.82,15.25,0,111.2,13.13,26.68,194.1
"2010-08-30 00:44:00",115589,12.08,232.3,2.975,0.329,22.76,110.3468,25.79,26.8,15.56,0,111.2,13.13,26.63,194.3
"2010-08-30 00:44:30",115590,11.24,230.6,2.626,0.469,22.65,110.3431,25.78,26.77,15.95,0,111.2,13.13,26.62,192.6
"2010-08-30 00:45:00",115591,11.35,230.2,1.667,0.495,22.59,110.3153,25.7,26.75,16.31,0,111.2,13.13,26.55,192.2
"2010-08-30 00:45:30",115592,11.5,229.6,3.362,0.619,22.7,110.3097,25.69,26.7,16.26,0,111.2,13.13,26.53,191.6
"2010-08-30 00:46:00",115593,13.53,230.3,4.052,0.478,23.13,110.2987,25.66,26.68,15.42,0,111.2,13.13,26.50,192.3
"2010-08-30 00:46:30",115594,13.71,226.2,0.911,0.285,23.53,110.3086,25.69,26.65,14.53,0,111.2,13.13,26.53,188.2
"2010-08-30 00:47:00",115595,14.17,226.7,2.948,0.251,23.36,110.3136,25.7,26.65,14.53,0,111.2,13.13,26.54,188.7
"2010-08-30 00:47:30",115596,13.33,226.7,1.001,0.464,23.28,110.3347,25.75,26.68,14.66,0,111.2,13.13,26.60,188.7
"2010-08-30 00:48:00",115597,12.57,225.5,1.598,0.412,23.33,110.3493,25.79,26.69,14.48,0,111.2,13.12,26.63,187.5
"2010-08-30 00:48:30",115598,12.8,222.4,0.918,0.443,23.48,110.3754,25.86,26.73,14.33,0,111.2,13.12,26.70,184.4
"2010-08-30 00:49:00",115599,12.04,222,1.253,0.251,23.32,110.3987,25.92,26.77,14.32,0,111.2,13.12,26.76,184.0
"2010-08-30 00:49:30",115600,11.48,220.8,1.363,0.148,23.31,110.4138,25.96,26.8,14.32,0,111.2,13.12,26.80,182.8
"2010-08-30 00:50:00",115601,10.73,212.3,7.011,0.881,23.39,110.4317,26,26.83,14.21,0,111.2,13.12,26.85,174.3
"2010-08-30 00:50:30",115602,10.18,213.5,4.843,0.796,23.46,110.4481,26.05,26.87,14.16,0,111.2,13.12,26.89,175.5
"2010-08-30 00:51:00",115603,10.93,215.1,2.688,0.766,23.38,110.4693,26.1,26.93,14.11,0,111.2,13.12,26.94,177.1
"2010-08-30 00:51:30",115604,9.53,215.1,2.132,0.699,23.34,110.4865,26.14,26.95,14.08,0,111.2,13.12,26.99,177.1
"2010-08-30 00:52:00",115605,10.45,216,6.796,0.508,23.47,110.5065,26.2,26.99,13.99,0,111.2,13.12,27.04,178.0
"2010-08-30 00:52:30",115606,10.24,201.1,5.253,0.352,23.53,110.5304,26.26,27.03,13.95,0,111.2,13.12,27.10,163.1
"2010-08-30 00:53:00",115607,8.54,205.7,6.366,0.281,23.53,110.551,26.31,27.08,13.84,0,111.2,13.12,27.15,167.7
"2010-08-30 00:53:30",115608,8.2,215.7,2.858,0.475,23.44,110.5704,26.36,27.11,13.83,0,111.2,13.13,27.20,177.7
"2010-08-30 00:54:00",115609,8.41,223.7,3.264,0.53,23.46,110.5909,26.41,27.16,13.74,0,111.2,13.13,27.26,185.7
"2010-08-30 00:54:30",115610,8.78,223.8,3.304,0.267,23.44,110.6026,26.44,27.18,13.68,0,111.2,13.13,27.29,185.8
"2010-08-30 00:55:00",115611,8.74,220.2,5.216,0.272,23.37,110.6065,26.45,27.21,13.75,0,111.2,13.13,27.30,182.2
"2010-08-30 00:55:30",115612,8.21,209.1,3.321,0.431,23.49,110.6086,26.46,27.23,13.72,0,111.2,13.13,27.30,171.1
"2010-08-30 00:56:00",115613,7.704,207.9,8.54,0.646,23.48,110.6145,26.47,27.27,13.75,0,111.2,13.13,27.32,169.9
"2010-08-30 00:56:30",115614,7.563,208.1,3.377,0.518,23.49,110.6291,26.51,27.3,13.7,0,111.2,13.13,27.36,170.1
"2010-08-30 00:57:00",115615,7.682,206.9,3.217,0.434,23.42,110.6403,26.54,27.3,13.71,0,111.2,13.13,27.38,168.9
"2010-08-30 00:57:30",115616,8.65,206.1,3.996,0.46,23.45,110.6409,26.54,27.32,13.69,0,111.2,13.13,27.39,168.1
"2010-08-30 00:58:00",115617,8.44,202.8,4.496,0.745,23.5,110.6412,26.54,27.33,13.67,0,111.2,13.13,27.39,164.8
"2010-08-30 00:58:30",115618,8.32,210.5,7.809,0.406,23.39,110.6412,26.54,27.34,13.71,0,111.2,13.13,27.39,172.5
"2010-08-30 00:59:00",115619,9.67,215.6,3.968,1.039,23.17,110.6409,26.54,27.35,13.79,0,111.2,13.13,27.39,177.6
"2010-08-30 00:59:30",115620,10.77,216.2,1.781,0.286,23.01,110.6133,26.47,27.34,13.91,0,111.2,13.13,27.31,178.2
"2010-08-30 01:00:00",115621,10.8,212.4,1.796,0.412,23.12,110.6052,26.45,27.33,13.92,0,111.2,13.13,27.29,174.4
"2010-08-30 01:00:30",115622,11.02,214.2,1.435,0.278,23.17,110.5906,26.41,27.29,13.85,0,111.2,13.13,27.26,176.2
"2010-08-30 01:01:00",115623,10.42,212.8,0.982,0.225,23.27,110.5749,26.37,27.3,13.78,0,111.2,13.13,27.22,174.8
"2010-08-30 01:01:30",115624,10.47,210.7,2.131,0.171,23.23,110.5738,26.37,27.26,13.78,0,111.2,13.13,27.21,172.7
"2010-08-30 01:02:00",115625,10.06,210.8,1.426,0.23,23.19,110.5734,26.37,27.25,13.83,0,111.2,13.13,27.21,172.8
"2010-08-30 01:02:30",115626,10.5,209.2,1.806,0.646,23.16,110.5687,26.36,27.23,13.86,0,111.2,13.13,27.20,171.2
"2010-08-30 01:03:00",115627,12.61,213.8,2.008,0.275,22.97,110.5468,26.3,27.23,14.01,0,111.2,13.13,27.14,175.8
"2010-08-30 01:03:30",115628,13.29,209.7,3.636,0.71,22.92,110.5375,26.28,27.2,14.15,0,111.2,13.13,27.12,171.7
"2010-08-30 01:04:00",115629,13.44,205.6,1.885,0.521,22.99,110.5101,26.21,27.17,14.23,0,111.2,13.13,27.05,167.6
"2010-08-30 01:04:30",115630,13.11,205.3,2.317,0.374,23.01,110.5024,26.19,27.14,14.11,0,111.2,13.13,27.03,167.3
"2010-08-30 01:05:00",115631,12.21,206.3,1.996,0.463,22.9,110.4752,26.12,27.11,14.3,0,111.2,13.13,26.96,168.3
"2010-08-30 01:05:30",115632,11.83,213.4,2.255,0.32,23.03,110.4679,26.1,27.07,14.13,0,111.2,13.13,26.94,175.4
"2010-08-30 01:06:00",115633,11.15,205.2,4.296,0.675,23.07,110.4424,26.03,27.04,14.09,0,111.2,13.13,26.87,167.2
"2010-08-30 01:06:30",115634,10.98,205.8,1.886,0.49,23.15,110.4396,26.02,27.01,14,0,111.2,13.12,26.87,167.8
"2010-08-30 01:07:00",115635,9.23,207.5,2.653,0.561,23.18,110.4393,26.02,26.98,13.92,0,111.2,13.12,26.87,169.5
"2010-08-30 01:07:30",115636,9.67,210.5,3.666,0.367,23.37,110.4399,26.02,26.97,13.79,0,111.2,13.12,26.87,172.5
"2010-08-30 01:08:00",115637,9.98,206.9,3.35,0.511,23.3,110.4431,26.03,26.97,13.8,0,111.2,13.12,26.88,168.9
"2010-08-30 01:08:30",115638,10.07,212.5,2.928,0.301,23.31,110.4512,26.05,26.97,13.74,0,111.2,13.13,26.90,174.5
"2010-08-30 01:09:00",115639,10.49,212.6,1.711,0.308,23.22,110.4757,26.12,26.97,13.76,0,111.2,13.12,26.96,174.6
"2010-08-30 01:09:30",115640,10.64,212.6,2.459,0.274,23.17,110.4758,26.12,26.97,13.82,0,111.2,13.12,26.96,174.6
"2010-08-30 01:10:00",115641,10.26,217.3,2.708,0.504,23.26,110.4767,26.12,26.99,13.8,0,111.2,13.13,26.96,179.3
"2010-08-30 01:10:30",115642,11.2,212.8,2.542,0.812,23.09,110.4792,26.13,26.98,13.83,0,111.2,13.13,26.97,174.8
"2010-08-30 01:11:00",115643,12.14,209.3,2.166,0.391,22.84,110.4722,26.11,26.99,14.19,0,111.2,13.13,26.95,171.3
"2010-08-30 01:11:30",115644,12.42,209,1.025,0.327,22.84,110.4477,26.05,26.98,14.31,0,111.2,13.13,26.89,171.0
"2010-08-30 01:12:00",115645,11.74,208.2,3.697,0.48,22.96,110.4379,26.02,26.95,14.39,0,111.2,13.13,26.86,170.2
"2010-08-30 01:12:30",115646,12.05,202.3,1.659,0.3,22.95,110.4157,25.96,26.92,14.37,0,111.2,13.13,26.81,164.3
"2010-08-30 01:13:00",115647,12.38,204.2,2.529,0.418,23,110.414,25.96,26.88,14.43,0,111.2,13.13,26.80,166.2
"2010-08-30 01:13:30",115648,11.99,206.8,3.091,0.221,22.98,110.3968,25.91,26.85,14.34,0,111.2,13.13,26.76,168.8
"2010-08-30 01:14:00",115649,11.37,212,1.916,0.267,22.94,110.3809,25.87,26.84,14.38,0,111.2,13.13,26.72,174.0
"2010-08-30 01:14:30",115650,10.64,212.4,1.607,0.388,23.04,110.3809,25.87,26.8,14.23,0,111.2,13.13,26.72,174.4
"2010-08-30 01:15:00",115651,10.41,214.8,3.047,0.252,23.14,110.3809,25.87,26.78,14.15,0,111.2,13.13,26.72,176.8
"2010-08-30 01:15:30",115652,11.03,214.5,1.893,0.337,23.07,110.3809,25.87,26.78,14.14,0,111.2,13.13,26.72,176.5
"2010-08-30 01:16:00",115653,10.23,217.4,2.466,0.442,23.13,110.3809,25.87,26.76,14.06,0,111.2,13.14,26.72,179.4
"2010-08-30 01:16:30",115654,10.47,216.4,2.675,0.669,23.15,110.3809,25.87,26.78,14,0,111.2,13.14,26.72,178.4
"2010-08-30 01:17:00",115655,10.66,216.6,2.126,0.532,23.26,110.3811,25.87,26.76,13.85,0,111.2,13.14,26.72,178.6
"2010-08-30 01:17:30",115656,10.09,212.1,2.648,0.652,23.31,110.396,25.91,26.78,13.8,0,111.2,13.14,26.75,174.1
"2010-08-30 01:18:00",115657,9.62,211.4,2.924,0.458,23.38,110.4143,25.96,26.79,13.71,0,111.2,13.14,26.80,173.4
"2010-08-30 01:18:30",115658,9.88,209.2,1.585,0.155,23.26,110.4171,25.97,26.81,13.74,0,111.2,13.14,26.81,171.2
"2010-08-30 01:19:00",115659,9.89,207.8,2.957,0.432,23.49,110.4309,26,26.84,13.61,0,111.2,13.14,26.84,169.8
"2010-08-30 01:19:30",115660,9.69,207.5,1.127,0.281,23.27,110.4483,26.05,26.86,13.65,0,111.2,13.13,26.89,169.5
"2010-08-30 01:20:00",115661,9.57,207.9,2.972,0.321,23.22,110.4483,26.05,26.88,13.74,0,111.2,13.14,26.89,169.9
"2010-08-30 01:20:30",115662,9.43,208.7,2.053,0.238,23.18,110.4485,26.05,26.91,13.77,0,111.2,13.14,26.89,170.7
"2010-08-30 01:21:00",115663,9.92,210.3,1.266,0.234,22.91,110.4483,26.05,26.92,14.03,0,111.1,13.14,26.89,172.3
"2010-08-30 01:21:30",115664,10.28,209.3,2.267,0.483,23.01,110.4443,26.04,26.91,14.06,0,111.2,13.14,26.88,171.3
"2010-08-30 01:22:00",115665,10.1,209.7,3.432,0.402,23.07,110.4278,25.99,26.88,14.02,0,111.2,13.14,26.84,171.7
"2010-08-30 01:22:30",115666,10.22,205.5,2.251,0.342,23.17,110.4185,25.97,26.87,13.96,0,111.2,13.13,26.81,167.5
"2010-08-30 01:23:00",115667,9.62,207.9,2.138,0.276,23.27,110.4154,25.96,26.87,13.83,0,111.1,13.13,26.80,169.9
"2010-08-30 01:23:30",115668,9.17,210.3,2.286,0.41,23.2,110.4199,25.97,26.88,13.85,0,111.1,13.13,26.82,172.3
"2010-08-30 01:24:00",115669,9.63,209.5,0.759,0.191,23.13,110.4176,25.97,26.88,13.96,0,111.2,13.13,26.81,171.5
"2010-08-30 01:24:30",115670,10.28,210.4,1.077,0.22,23.11,110.4151,25.96,26.86,14.03,0,111.1,13.13,26.80,172.4
"2010-08-30 01:25:00",115671,9.81,210.9,1.907,0.274,23.06,110.4146,25.96,26.88,14.11,0,111.2,13.13,26.80,172.9
"2010-08-30 01:25:30",115672,9.88,212.7,1.883,0.323,23.07,110.414,25.96,26.84,14.13,0,111.1,13.13,26.80,174.7
"2010-08-30 01:26:00",115673,10.08,212.1,1.423,0.16,23.03,110.4106,25.95,26.84,14.17,0,111.1,13.13,26.79,174.1
"2010-08-30 01:26:30",115674,10.12,211.7,2.03,0.364,23.07,110.3952,25.91,26.83,14.2,0,111.1,13.13,26.75,173.7
"2010-08-30 01:27:00",115675,9.77,210.8,2.05,0.336,23.09,110.3825,25.88,26.81,14.19,0,111.1,13.13,26.72,172.8
"2010-08-30 01:27:30",115676,9.57,213,1.99,0.288,23.09,110.3809,25.87,26.81,14.19,0,111.1,13.13,26.72,175.0
"2010-08-30 01:28:00",115677,9.08,216.5,2.169,0.46,23.08,110.3809,25.87,26.8,14.22,0,111.1,13.14,26.72,178.5
"2010-08-30 01:28:30",115678,9.33,215.6,1.948,0.247,23.11,110.3809,25.87,26.79,14.21,0,111.1,13.14,26.72,177.6
"2010-08-30 01:29:00",115679,9.04,215,1.286,0.258,23.08,110.3809,25.87,26.78,14.25,0,111.1,13.14,26.72,177.0
"2010-08-30 01:29:30",115680,9.14,214.7,1.328,0.176,23.03,110.3809,25.87,26.79,14.41,0,111.1,13.14,26.72,176.7
"2010-08-30 01:30:00",115681,9.49,217.1,1.62,0.239,23.06,110.373,25.85,26.78,14.44,0,111.1,13.14,26.70,179.1
"2010-08-30 01:30:30",115682,9.29,220.9,1.299,0.234,23.18,110.3654,25.83,26.76,14.18,0,111.1,13.14,26.68,182.9
"2010-08-30 01:31:00",115683,9.04,218.6,2.526,0.279,23.01,110.3674,25.84,26.77,14.38,0,111.1,13.14,26.68,180.6
"2010-08-30 01:31:30",115684,9.35,221.1,1.718,0.198,23.03,110.3539,25.8,26.75,14.47,0,111.1,13.14,26.65,183.1
"2010-08-30 01:32:00",115685,9.68,219.1,0.77,0.348,23.05,110.3475,25.79,26.75,14.47,0,111.1,13.14,26.63,181.1
"2010-08-30 01:32:30",115686,10,221.4,0.848,0.125,23.14,110.3475,25.79,26.74,14.4,0,111.1,13.14,26.63,183.4
"2010-08-30 01:33:00",115687,9.76,221.6,1.903,0.34,23.1,110.3472,25.79,26.73,14.34,0,111.1,13.14,26.63,183.6
"2010-08-30 01:33:30",115688,9.2,225.3,1.731,0.148,23.19,110.3475,25.79,26.72,14.31,0,111.1,13.14,26.63,187.3
"2010-08-30 01:34:00",115689,8.77,227.3,0.789,0.192,23.35,110.3509,25.8,26.71,13.97,0,111.1,13.14,26.64,189.3
"2010-08-30 01:34:30",115690,8.97,226.9,1.534,0.108,23.26,110.3745,25.86,26.73,13.95,0,111.1,13.14,26.70,188.9
"2010-08-30 01:35:00",115691,8.55,227,0.953,0.157,23.34,110.3892,25.89,26.75,13.8,0,111.1,13.14,26.74,189.0
"2010-08-30 01:35:30",115692,8.15,228.7,1.7,0.211,23.24,110.3962,25.91,26.78,13.84,0,111.1,13.14,26.76,190.7
"2010-08-30 01:36:00",115693,8.67,230.3,2.185,0.209,23.14,110.4119,25.95,26.79,14.08,0,111.1,13.14,26.80,192.3
"2010-08-30 01:36:30",115694,8.93,228.7,2.405,0.345,23.11,110.4156,25.96,26.8,14.12,0,111.1,13.14,26.81,190.7
"2010-08-30 01:37:00",115695,9.96,232.2,1.908,0.497,23.22,110.4196,25.97,26.81,14.11,0,111.1,13.14,26.82,194.2
"2010-08-30 01:37:30",115696,10.53,236.8,2.272,0.562,23.28,110.4246,25.99,26.83,14.17,0,111.1,13.14,26.83,198.8
"2010-08-30 01:38:00",115697,9.88,241,1.675,0.347,23.23,110.4376,26.02,26.82,14.22,0,111.1,13.14,26.86,203.0
"2010-08-30 01:38:30",115698,9.69,236.2,6.91,0.527,23.19,110.4388,26.02,26.84,14.24,0,111.1,13.14,26.86,198.2
"2010-08-30 01:39:00",115699,8.71,232.7,4.529,0.538,23.11,110.44,26.03,26.85,14.29,0,111.1,13.14,26.87,194.7
"2010-08-30 01:39:30",115700,8.74,233.7,4.427,0.403,23.11,110.4384,26.02,26.85,14.32,0,111.1,13.14,26.86,195.7
"2010-08-30 01:40:00",115701,9.34,229.9,4.873,0.688,23.21,110.436,26.01,26.85,14.43,0,111.1,13.14,26.86,191.9
"2010-08-30 01:40:30",115702,8.63,234.8,2.457,0.267,23.2,110.4329,26.01,26.86,14.33,0,111.1,13.14,26.85,196.8
"2010-08-30 01:41:00",115703,8.95,238.6,2.433,0.237,23.2,110.4326,26.01,26.85,14.34,0,111.1,13.14,26.85,200.6
"2010-08-30 01:41:30",115704,9.6,237.7,2.367,0.566,23.21,110.4315,26,26.85,14.38,0,111.1,13.14,26.85,199.7
"2010-08-30 01:42:00",115705,9.38,233.3,2.776,0.679,23.24,110.4335,26.01,26.86,14.38,0,111.1,13.14,26.85,195.3
"2010-08-30 01:42:30",115706,8.44,236.9,2.573,0.22,23.24,110.4371,26.02,26.86,14.41,0,111.1,13.14,26.86,198.9
"2010-08-30 01:43:00",115707,8.77,237,3.307,0.551,23.18,110.4385,26.02,26.86,14.44,0,111.1,13.14,26.86,199.0
"2010-08-30 01:43:30",115708,8.72,234.5,2.355,0.364,23.24,110.4388,26.02,26.86,14.53,0,111.1,13.14,26.86,196.5
"2010-08-30 01:44:00",115709,9.02,236,2.247,0.254,23.09,110.431,26,26.86,14.63,0,111.1,13.14,26.84,198.0
"2010-08-30 01:44:30",115710,8.79,239.7,2.931,0.232,23.15,110.4237,25.98,26.86,14.77,0,111.1,13.14,26.83,201.7
"2010-08-30 01:45:00",115711,8.81,242.6,2.268,0.143,23.12,110.413,25.96,26.85,15.11,0,111.1,13.14,26.80,204.6
"2010-08-30 01:45:30",115712,8.68,243.1,1.313,0.188,23.11,110.4097,25.95,26.85,15.16,0,111.1,13.14,26.79,205.1
"2010-08-30 01:46:00",115713,8.81,239.7,1.27,0.257,23.2,110.4091,25.95,26.84,15.03,0,111.1,13.14,26.79,201.7
"2010-08-30 01:46:30",115714,8.56,238.9,1.04,0.15,23.22,110.4091,25.95,26.83,14.8,0,111.1,13.14,26.79,200.9
"2010-08-30 01:47:00",115715,8.48,240.6,1.16,0.162,23.1,110.4106,25.95,26.84,15.01,0,111.1,13.14,26.79,202.6
"2010-08-30 01:47:30",115716,7.999,238.7,1.668,0.181,23.11,110.4112,25.95,26.82,15.07,0,111.1,13.14,26.79,200.7
"2010-08-30 01:48:00",115717,8.06,239.2,1.961,0.237,23.09,110.4116,25.95,26.81,15.1,0,111.1,13.14,26.79,201.2